User: anonymous   Login
Location: Theydon Bois
(51.6750°N, 0.1050°E)
Time: 09:46:29
(UTC+00:00)
Language:

Cosmos 1371 Rocket - Orbit

View from above orbital plane
View from above orbital plane
View from above satellite
View from above satellite

Ground track
Ground track

The orbit data is extracted from the following two-line orbital elements,

1 13242U 82051B   18055.64109012 -.00000045  00000-0 -63449-5 0  9992
2 13242  74.0407 249.7127 0024417  26.9912  34.9189 14.35895991869859
Epoch (UTC): 24 February 2018 15:23:10
Eccentricity: 0.0024417
inclination: 74.0407°
perigee height: 754 km
apogee height: 789 km
right ascension of ascending node: 249.7127°
argument of perigee: 26.9912°
revolutions per day: 14.35895991
mean anomaly at epoch: 34.9189°
orbit number at epoch: 86985

The dashed part of the orbit path shows where the satellite is in the earth's shadow,  

DLR